GEFSSE_con_probscp_246.txt.gz
Probability
0 0 0 0 0 0 0 0 0 0 1 2 2 2 2 3 3 3 3 3 2 1 0 0 0 0 0 1 2 3 3 2 1 1 2 3 3 3 2 1 0 0 0
0 0 0 0 0 0 0 0 0 0 0 1 2 2 2 3 3 3 3 3 2 1 0 0 0 0 0 1 2 3 3 3 1 0 1 2 3 3 2 1 0 0 0
0 0 0 0 0 1 0 0 0 1 1 1 2 2 2 3 3 3 3 3 2 1 0 0 0 0 0 1 2 3 3 3 2 1 0 1 1 2 2 1 1 1 1
0 0 0 0 0 0 0 0 0 1 1 1 2 2 2 3 4 4 4 2 1 0 0 0 0 0 0 0 1 2 3 3 3 1 0 0 0 1 1 2 2 2 3
0 0 0 0 0 0 0 0 0 1 1 1 2 3 4 4 4 5 3 1 0 0 0 0 0 0 0 0 0 1 2 3 3 2 1 0 1 1 2 2 3 3 3
0 0 0 0 0 0 0 0 0 0 0 1 3 5 5 4 4 4 2 1 0 0 0 0 0 0 0 0 0 0 1 3 3 3 2 1 1 2 3 3 3 3 2
0 0 0 0 0 0 0 0 0 0 0 1 4 5 4 3 3 2 1 0 0 0 0 0 0 0 0 0 0 0 1 2 3 3 2 1 1 2 3 3 3 2 1
0 0 0 0 0 0 0 0 0 0 0 1 2 4 4 3 2 1 1 0 0 0 0 0 0 0 0 0 0 0 1 2 3 1 1 1 1 3 3 3 3 3 2
0 0 0 0 0 0 0 0 0 0 0 0 1 2 3 3 1 0 0 0 0 0 0 0 0 0 0 0 0 0 1 2 2 1 0 1 2 3 3 3 3 3 3
0 0 0 0 0 0 0 0 0 0 0 0 1 2 2 2 1 0 0 0 0 0 0 0 0 0 0 0 0 0 1 2 2 1 0 1 2 3 3 3 3 3 3
0 0 0 0 0 0 0 0 0 0 0 0 1 1 1 1 0 0 0 0 0 0 0 0 0 0 0 0 0 0 1 1 1 0 0 1 2 3 3 3 3 3 3
1 1 1 1 1 1 0 0 0 0 0 0 0 0 0 0 0 0 0 0 0 0 0 0 0 0 0 0 0 1 1 1 0 0 0 2 3 3 3 3 3 3 3
2 2 2 2 2 2 1 0 0 0 0 0 0 0 0 0 0 0 0 0 0 0 0 0 0 0 0 0 0 1 1 1 0 0 2 4 4 3 3 2 3 3 3
3 3 3 3 3 2 1 0 0 0 0 0 1 1 0 0 0 0 0 0 0 0 1 1 0 0 0 0 0 0 0 0 0 0 2 5 5 3 1 1 1 2 2
3 3 3 3 3 2 1 1 1 1 1 1 2 2 1 0 0 0 1 1 1 1 1 2 1 1 1 1 1 0 0 0 0 0 1 4 4 2 0 0 0 1 1
4 4 4 4 3 2 1 1 2 3 4 4 4 3 2 1 0 1 2 2 2 1 2 3 3 2 2 2 2 1 0 0 0 0 1 2 2 1 0 0 0 0 0
5 5 5 3 2 2 2 2 1 3 5 5 4 4 3 2 2 2 3 3 3 3 3 3 3 3 3 3 3 2 1 0 0 0 0 1 1 0 0 0 0 0 0
5 5 4 2 2 3 4 3 3 3 4 4 4 3 3 4 4 4 3 3 3 3 3 3 3 3 3 3 3 3 2 1 1 0 0 0 0 0 0 0 0 0 0
4 4 3 2 2 4 6 7 6 5 5 4 4 4 4 5 5 4 3 3 3 3 3 3 3 3 3 3 3 3 3 3 2 1 0 0 0 0 0 0 0 0 0
3 2 2 2 3 5 7 8 7 6 6 6 6 5 5 5 5 5 4 3 3 3 4 4 4 4 4 4 4 4 4 3 3 2 2 1 1 0 0 0 0 0 0
5 5 5 5 6 8 9 8 7 6 6 6 6 5 5 4 4 4 3 3 3 4 5 6 6 5 5 5 6 5 4 4 4 5 5 4 2 0 0 0 0 0 0
10 10 10 10 11 11 10 8 6 6 6 6 5 3 4 4 4 3 3 3 4 5 6 7 7 7 7 7 7 5 3 5 6 6 5 4 2 0 1 1 1 2 1
12 13 12 14 16 14 11 8 6 7 7 7 5 4 4 5 5 4 4 4 5 6 6 6 7 8 9 8 7 5 4 5 6 5 4 3 1 0 1 2 2 3 3
11 11 14 18 19 17 13 9 8 8 8 8 7 7 7 7 6 6 5 6 6 6 5 4 4 7 9 9 8 7 6 5 5 5 4 3 1 1 1 1 2 3 3
10 11 16 20 20 18 16 13 11 10 9 8 9 9 8 7 6 5 5 5 5 5 4 2 3 6 9 9 9 8 6 5 4 4 3 3 3 3 2 2 3 3 4
11 12 16 21 20 18 16 14 13 12 10 9 9 9 8 7 5 4 4 4 4 4 2 1 2 5 9 10 9 7 5 4 3 3 3 3 4 4 4 4 4 4 4

GEFSSE_con_probscp_252.txt.gz
Probability
3 3 3 3 3 3 3 3 3 3 4 5 6 7 8 9 9 9 8 6 5 5 5 6 5 4 4 4 4 5 6 6 5 4 3 2 2 2 1 1 0 1 1
3 3 3 3 3 3 3 3 3 3 3 4 6 7 7 7 7 7 6 5 4 4 5 5 4 4 4 5 4 4 5 6 5 4 3 2 1 1 1 1 1 0 1
1 2 3 3 3 3 3 3 3 3 4 4 5 6 6 7 7 6 5 4 3 3 4 4 4 4 5 5 4 3 4 5 6 5 3 1 0 1 1 2 2 1 1
0 1 3 3 3 3 3 4 4 4 4 4 4 6 6 7 7 6 5 4 3 3 3 4 3 4 5 4 3 3 3 3 5 4 2 0 1 2 2 2 3 3 3
0 1 2 3 4 4 4 4 4 5 5 5 5 6 6 7 7 6 4 3 3 3 3 3 3 3 4 3 3 2 1 1 2 2 1 0 1 2 3 3 4 5 5
0 1 3 5 5 6 5 5 5 6 7 8 8 7 6 6 6 4 3 3 3 3 3 3 3 3 2 2 2 1 0 0 0 0 0 0 1 2 3 4 4 5 4
1 1 4 7 7 6 6 6 5 6 8 10 9 7 6 6 5 4 3 3 3 3 2 3 2 1 1 1 1 0 0 0 0 0 0 0 1 2 4 4 4 5 4
2 2 4 7 7 6 7 6 5 6 9 10 8 6 6 6 5 4 4 3 2 1 1 2 2 1 0 0 0 1 2 2 1 0 0 0 1 2 3 4 4 5 5
3 2 3 5 6 8 9 8 6 7 9 9 7 5 5 6 6 6 5 3 1 0 0 1 1 0 0 0 1 3 5 4 2 0 0 0 1 2 3 3 3 4 5
2 2 2 3 5 8 9 10 9 9 9 7 5 5 5 5 5 6 5 3 1 0 0 0 0 0 1 1 3 5 6 4 1 0 0 1 3 3 3 3 2 1 2
1 1 1 3 4 6 8 10 10 9 8 6 5 5 6 5 4 4 4 4 3 2 1 1 1 1 2 3 4 5 5 3 1 0 0 2 4 4 4 4 2 0 1
2 2 3 5 5 5 6 8 8 7 8 7 7 8 7 5 3 3 4 6 6 5 4 3 3 3 3 3 4 4 3 2 1 0 1 2 5 5 5 4 2 0 0
3 4 6 7 6 6 6 6 5 6 9 8 8 9 7 5 3 4 5 6 6 6 6 5 5 4 4 4 4 4 3 2 1 1 1 3 6 6 5 3 2 1 1
4 5 6 6 6 6 7 6 5 5 9 10 9 10 9 7 5 5 6 7 7 6 6 6 6 6 6 7 6 5 4 3 3 3 3 5 7 7 6 4 2 2 2
6 6 7 7 7 9 9 9 7 7 9 11 10 10 11 11 9 8 7 7 7 6 6 6 8 9 10 10 9 7 6 5 4 5 5 6 8 9 8 6 4 3 4
8 9 11 11 11 12 10 10 10 11 13 13 11 10 11 11 10 9 8 7 8 7 8 10 11 12 13 12 11 11 9 7 6 6 7 6 7 8 8 6 5 4 5
13 14 13 12 13 13 10 10 11 11 13 14 14 11 10 10 9 8 8 9 9 10 12 14 14 15 14 13 12 12 11 9 8 8 9 7 4 5 5 4 4 4 5
18 17 14 12 13 14 14 14 13 11 11 14 15 13 11 10 9 8 8 9 10 11 14 16 16 15 15 13 12 11 12 11 10 10 11 9 5 4 3 3 4 4 3
22 19 16 14 14 17 18 17 15 13 11 12 13 13 12 10 9 8 8 10 11 11 13 14 14 15 15 13 12 11 12 12 12 12 12 11 9 7 5 4 4 3 2
28 27 23 20 19 19 19 18 17 15 13 12 13 14 13 11 9 8 8 10 11 11 11 11 13 15 15 13 12 11 11 12 13 13 12 12 11 11 9 7 5 3 2
39 39 34 28 25 22 20 19 19 17 15 13 14 15 14 11 9 7 7 9 11 11 11 11 13 14 14 13 11 9 9 10 12 11 10 10 11 11 10 10 9 7 5
45 44 39 33 30 27 24 23 21 19 16 15 17 18 16 12 10 8 7 8 9 10 12 13 14 15 14 12 11 9 8 8 9 8 8 10 11 11 10 10 12 12 9
41 42 40 40 38 33 29 26 23 20 17 17 19 20 18 15 12 10 9 9 9 10 12 13 14 14 14 13 11 9 7 7 7 7 8 10 12 11 9 8 12 13 10
36 38 44 48 46 38 31 27 25 23 20 19 19 20 18 16 14 12 11 12 12 12 13 12 11 12 13 12 10 9 9 8 7 6 8 9 10 10 9 7 10 11 9
35 38 45 53 52 44 34 28 26 24 22 20 17 16 16 15 15 14 14 16 15 14 12 11 11 12 11 9 8 8 9 9 7 6 7 8 8 9 10 10 10 9 8
36 37 44 54 55 47 38 30 27 25 23 20 17 14 14 14 15 16 17 18 17 14 12 11 12 12 10 7 6 7 8 8 7 6 7 9 8 9 11 13 11 9 9

GEFSSE_con_probscp_258.txt.gz
Probability
0 0 0 0 0 0 0 1 2 2 1 2 3 3 3 3 3 3 3 4 5 5 4 2 1 1 0 0 0 0 1 2 2 3 3 2 3 3 3 3 2 1 1
0 0 0 0 0 0 0 0 1 1 2 3 3 3 3 3 3 3 3 3 4 4 3 3 2 1 0 0 0 0 0 1 2 2 3 3 3 2 2 3 3 2 2
0 0 1 1 0 0 0 0 0 1 3 3 3 3 3 3 3 3 3 3 3 4 3 3 2 1 1 1 0 0 0 0 1 1 2 2 2 2 2 2 2 3 3
0 1 2 2 1 1 1 1 1 1 3 3 3 3 3 3 3 3 4 4 4 5 4 3 3 2 2 2 1 1 0 0 0 0 1 1 1 2 2 1 1 2 2
0 1 3 4 4 3 3 3 2 2 3 4 4 4 4 3 3 4 5 5 5 5 5 4 3 3 3 3 2 2 1 0 0 0 0 0 1 2 2 1 0 1 1
0 1 3 6 6 5 5 5 4 3 5 5 5 4 4 3 4 5 6 6 4 4 4 4 3 3 2 2 2 2 1 0 0 0 0 0 0 1 2 1 1 1 0
0 1 3 6 7 6 6 6 5 5 6 6 5 3 3 3 5 6 6 5 2 1 2 2 2 2 1 1 1 1 1 0 0 0 0 0 0 1 2 2 2 1 1
0 0 2 5 6 6 6 6 6 5 5 4 3 2 2 3 5 5 4 2 0 0 0 1 1 1 0 1 2 2 2 1 0 0 0 0 0 0 1 2 1 1 0
0 0 1 3 5 5 5 5 5 4 4 3 3 1 1 2 3 3 2 0 0 0 0 0 0 1 1 2 3 3 3 2 1 0 0 0 0 0 0 0 0 0 0
0 0 0 2 2 2 2 3 4 5 5 4 4 3 2 2 2 1 0 0 0 0 0 1 1 2 3 3 3 3 3 2 1 0 0 0 0 0 0 0 0 0 0
1 0 0 1 1 0 0 1 3 5 6 5 4 5 4 2 1 0 0 1 1 1 1 2 3 3 3 3 3 2 2 2 1 0 0 0 0 0 0 0 0 0 0
1 0 0 0 1 1 1 0 1 2 3 3 4 4 3 1 0 0 1 3 4 3 3 3 3 3 3 3 2 2 2 2 1 0 0 0 0 0 0 0 1 2 1
1 0 0 1 2 2 2 1 1 1 1 1 2 2 1 0 1 1 1 2 4 4 3 3 3 3 3 2 1 1 1 2 1 0 0 0 0 1 1 1 2 3 3
0 0 0 1 2 3 3 4 4 2 1 1 2 2 1 1 2 2 2 3 3 3 2 2 1 2 2 1 0 0 1 1 1 0 0 0 1 2 2 3 3 4 4
0 0 0 1 2 3 3 5 5 4 3 3 2 2 2 3 3 3 3 3 3 2 1 0 1 1 2 1 0 0 0 0 0 0 0 1 2 3 3 3 3 3 3
1 1 1 1 1 2 3 4 4 4 4 4 3 3 3 3 3 3 3 3 2 1 0 0 0 1 1 0 0 1 0 0 0 0 0 1 2 3 3 3 2 2 2
2 2 2 3 2 3 5 5 5 4 4 4 3 3 3 3 3 3 3 1 1 1 0 0 0 0 0 0 1 1 1 0 0 0 0 0 1 1 2 3 2 2 2
2 3 4 5 5 5 6 7 7 6 4 2 3 3 4 4 4 3 3 1 0 0 0 0 0 1 1 1 1 1 1 0 0 0 0 0 0 0 1 2 2 2 2
4 5 5 7 7 7 6 6 6 5 3 2 2 4 4 5 5 4 4 3 2 1 0 0 1 2 2 2 1 1 0 0 0 0 0 0 0 0 0 1 1 2 2
9 8 8 8 8 7 7 7 6 5 3 1 2 3 4 5 6 6 6 5 4 3 2 2 3 3 4 3 1 0 0 0 0 0 0 0 0 0 0 0 0 1 1
13 12 10 10 9 8 8 9 8 6 3 2 2 3 3 4 6 6 6 6 6 4 4 4 3 2 2 2 1 0 0 0 0 0 0 0 0 0 0 0 0 0 1
18 15 12 11 11 10 10 10 8 7 5 3 2 4 4 5 6 6 6 6 5 4 4 3 2 1 1 1 0 0 0 0 0 0 0 0 0 0 0 0 0 0 0
19 18 16 16 15 14 13 11 9 8 6 4 3 4 5 6 6 6 6 5 4 3 3 2 1 0 0 0 0 0 0 0 0 0 0 0 0 0 0 0 0 0 0
20 20 21 21 19 17 15 13 11 9 8 5 4 4 6 6 6 6 5 4 3 3 3 2 1 0 0 0 0 0 0 0 0 0 0 0 0 0 0 0 0 0 0
21 22 24 24 21 18 14 12 11 10 8 6 5 5 6 6 5 4 4 3 3 3 2 1 0 0 0 0 0 0 0 0 0 0 0 0 0 0 0 0 0 0 0
23 24 26 25 22 18 14 12 10 9 8 7 6 6 5 4 4 4 3 3 3 3 1 0 0 0 0 0 0 0 0 0 0 0 0 0 0 0 0 0 0 0 0

GEFSSE_con_probscp_264.txt.gz
Probability
0 0 1 0 0 1 2 2 1 0 1 1 1 1 2 3 3 3 3 3 3 2 1 0 0 0 0 1 1 1 0 0 0 0 0 0 0 0 0 0 0 0 0
1 1 2 1 1 1 3 3 1 0 0 1 2 2 2 3 3 3 4 3 3 1 1 1 0 0 0 0 0 0 0 0 0 0 0 0 0 0 0 0 0 0 0
2 3 3 3 2 3 3 3 2 0 0 1 1 2 3 3 3 4 4 3 2 1 1 2 2 1 0 0 0 0 0 0 0 0 0 0 0 0 0 0 0 0 0
3 3 3 3 3 3 4 3 2 0 0 0 0 1 2 3 4 4 4 3 1 1 2 3 3 2 1 0 0 0 0 0 0 0 0 0 0 0 0 0 0 0 0
2 2 3 3 3 4 5 4 3 1 1 0 0 1 2 4 4 4 3 2 1 1 3 3 2 2 1 0 0 0 0 0 0 0 0 0 0 0 0 0 0 0 0
1 1 3 4 5 6 6 6 5 4 3 1 0 1 3 5 4 4 3 2 1 1 2 2 1 1 0 0 0 0 0 0 0 0 0 0 0 0 0 0 0 0 0
0 1 2 5 7 6 6 7 6 6 6 4 1 1 4 5 4 4 3 2 1 2 2 1 0 0 0 0 1 0 0 0 0 0 0 0 0 0 0 0 0 0 0
0 0 1 4 6 6 5 6 6 6 7 5 2 1 3 4 4 3 3 2 2 2 1 0 0 0 0 0 0 0 0 0 0 0 0 0 0 0 0 1 1 1 0
0 0 0 1 3 4 5 6 6 6 6 5 3 1 1 3 3 3 2 2 2 2 1 0 0 0 0 0 0 0 0 0 0 0 0 0 0 0 0 2 2 1 1
0 0 0 0 1 2 4 6 6 6 5 4 2 1 1 2 2 1 1 1 1 1 1 0 0 0 0 0 0 0 0 0 0 0 0 0 0 0 0 1 2 2 2
0 0 0 0 0 0 2 3 4 4 3 2 1 0 0 1 1 0 0 1 1 1 1 0 0 1 1 1 0 0 0 0 0 0 0 0 0 0 0 0 1 2 3
0 0 0 0 0 0 0 1 1 1 1 1 0 0 0 0 0 0 0 1 1 0 0 0 0 1 2 2 1 0 0 0 0 0 0 0 0 0 0 0 0 1 2
0 0 0 0 0 0 0 0 0 0 0 0 0 0 0 0 0 0 0 0 0 0 0 0 0 1 2 3 2 0 0 0 0 0 0 0 0 0 0 0 0 0 1
0 0 0 0 0 0 0 0 0 0 0 0 0 0 0 0 0 0 0 0 0 0 0 0 0 1 2 2 1 0 0 0 0 0 0 0 0 0 0 0 0 0 0
0 0 0 0 0 0 0 0 0 0 0 0 0 0 0 0 0 0 0 0 0 0 0 0 0 1 1 1 1 0 0 0 0 0 0 0 0 0 0 0 0 0 0
0 0 0 0 0 0 0 0 1 1 1 1 0 0 0 0 0 0 0 0 0 0 0 0 0 0 1 1 2 1 0 0 0 0 0 0 0 0 0 0 0 1 1
0 0 0 0 0 0 0 1 2 2 2 2 1 1 1 0 0 0 0 0 0 0 0 0 1 1 1 2 3 1 0 0 0 0 0 0 0 0 0 0 0 1 2
0 0 0 0 0 0 0 1 2 3 3 3 3 2 2 1 1 1 0 0 1 1 1 1 2 2 2 2 1 0 0 0 0 0 0 0 0 0 0 0 0 1 2
0 0 0 0 2 2 2 2 3 3 3 3 3 3 3 3 4 3 1 1 2 2 2 2 2 2 2 1 0 0 0 0 0 0 0 0 0 0 0 0 0 0 1
0 0 0 2 4 5 5 5 5 4 4 4 3 3 3 4 5 5 3 2 3 3 3 3 1 1 1 0 0 0 0 0 0 0 0 0 0 0 0 0 0 0 0
0 0 1 4 6 7 8 9 8 6 5 5 4 3 4 5 6 6 5 3 3 3 3 2 1 0 0 0 0 0 0 0 0 0 0 0 0 0 0 0 0 0 0
1 2 3 6 8 9 10 11 10 7 5 5 4 4 5 6 6 6 5 4 3 3 3 2 1 0 0 0 0 0 0 0 0 0 0 0 0 0 0 0 0 0 0
2 4 5 7 8 9 10 11 10 7 5 5 5 5 6 6 5 4 4 3 3 3 3 2 1 0 0 0 0 0 0 0 0 0 0 0 0 0 0 0 0 0 0
4 4 6 7 7 7 8 10 10 7 6 5 5 5 6 5 4 3 3 3 3 3 2 1 0 0 0 0 0 0 0 0 0 0 0 0 0 0 0 0 0 0 0
5 6 7 8 6 5 6 7 8 7 6 6 5 4 4 4 3 3 2 2 2 2 1 0 0 0 0 0 0 0 0 0 0 0 0 0 0 0 0 0 0 0 0
7 7 9 8 5 4 5 6 6 6 6 6 4 3 3 3 3 2 1 1 1 1 0 0 0 0 0 0 0 0 0 0 0 0 0 0 0 0 0 0 0 0 0